Location: Haliburton Scout Reserve
(45.0900°N, 78.3200°W)
Time: 03:02:04
(UTC-04:00)

NANOSAT C BR1 - Pass Details

Date: 20 May 2022
Orbit: 583 x 601 km, 98.0° (Epoch: 27 June)

Event Time Altitude Azimuth Distance (km) Brightness Sun altitude
Rises 03:50:05 0° 7° (N) 2,824 ? -15.4°
Reaches altitude 10° 03:52:19 10° 1° (N) 1,917 ? -15.1°
Maximum altitude 03:56:15 44° 289° (WNW) 820 ? -14.7°
Enters shadow 03:58:18 24° 231° (SW) 1,214 ? -14.5°
